Location: Ehrke Reservoir
(40.0279°N, 99.6641°W)
Time: 19:23:55
(UTC+00:00)

STARLINK-1087 - Pass Details

Date: 20 January 2020
Orbit: 348 x 351 km, 53.0° (Epoch: 28 February)

Event Time Altitude Azimuth Distance (km) Brightness Sun altitude
Rises 00:17:18 0° 255° (WSW) 2,153 9.2 -7.0°
Reaches altitude 10° 00:19:30 10° 269° (W) 1,313 7.0 -7.4°
Maximum altitude 00:22:02 26° 329° (NNW) 733 4.4 -7.9°
Drops below altitude 10° 00:24:35 10° 30° (NNE) 1,319 5.1 -8.4°
Enters shadow 00:25:03 - 34° (NNE) 1,488 5.4 -8.4°
